FENGYUN 1C DEB, 31542

Orbit data source: Space-Track

FENGYUN 1C DEB, 31542 is space debris in SSO originally from a launch on Mon, 10 May 1999 UTC launched from the Taiyaun Space Center, China (TSC). Fengyun 1C debris stems from the Chinese weather satellite Fengyun-1C, which was intentionally destroyed by a Chinese anti-satellite missile in 2007. This event dramatically increased the amount of space debris, with thousands of trackable fragments posing hazards to satellites and human spaceflight. The Fengyun 1C debris cloud has become a focal point in discussions about space sustainability and the need for international regulations to prevent the creation of new debris.

Loading next visibility...
Identifier
31542, 1999-025BYH
Orbit
SSO
Country
Flag of CNCN / PRC
Related business
Manufacturer
Unknown
Mission
Spacecraft
Bus & Motor
Unknown
Mass
Unknown
Launch date (UTC)
1999-05-10 (27 years ago)
Launch vehicle
Unknown
Launch site
Taiyaun Space Center, China (TSC)
Object type
Payload
Rocket body
Debris
Shape & HBR
Unknown shape, 0.1 m
Radar Cross Section
Small (<0.1 m²)

Expand to show TLE details & history
Last TLE update: 1 day ago

TLE from 1 day ago
0 FENGYUN 1C DEB
1 31542U 99025BYH 25352.94524572  .00002283  00000-0  10244-2 0  9993
2 31542  98.7313  46.8971 0047772 189.4267 170.6019 14.22828714960285
Epoch: 2025-12-18T22:41Z
TLE epoch observation values (Epoch: 2025-12-18T22:41:09.230Z)
Latitude
-0.00001°
Longitude
-21.18483°
Altitude
852.637 km
Speed
7.409 km/s
True Right ascension
03h 07m 35s
True Declination
0° 00' 00"
Sunlit
Object was in full shadow at epoch
Visualization orbit readout
Latitude
Unknown
Longitude
Unknown
Altitude
Unknown
Speed
Unknown
Apparent Right ascension
Unknown
Apparent Declination
Unknown
Sunlit
N/A
Visualization observer readout
Local Sidereal Time
23:34:11
Azimuth
Unknown
Elevation
Unknown
Doppler factor
Unknown
Orbital elements
Apogee altitude
847.311 km
Perigee altitude
778.605 km
Semi-major axis
7,191.095 km
Eccentricity
0.00478
Inclination
98.7313°
RAAN
46.8971°
Arg. of periapsis
189.4267°
True anomaly
170.69077°
Mean anomaly
170.6019°
Eccentric anomaly
170.64639°
Mean motion
3.55919 °/min
Orbital period
101.15 mins
BSTAR
0.0010244
Loading maneuver chart data...
Computing Atmospheric mass density...
Loading historical data...
Loading historical data...
Loading historical data...
Loading historical data...
Loading historical data...
Loading historical data...
Loading historical data...

Documentation

Showing up to 5 results
|